Las Vegas, NM

9:03 AM MDT on September 23, 2017 (GMT -0600)
Las Vegas Municipal

Weather History for KLVS - July, 2013

Change the Weather History Date:

Thursday, July 25, 2013

  Actual Average Record
Temperature  
Mean Temperature 70 °F -  
Max Temperature 84 °F 80 °F 95 °F (2003)
Min Temperature 57 °F 53 °F 41 °F (1973)
Cooling Degree Days 4    
Growing Degree Days 20 (Base 50)    
Moisture  
Dew Point 55 °F    
Average Humidity 66    
Maximum Humidity 90    
Minimum Humidity 34    
Precipitation  
Precipitation 0.03 in - - ()
Sea Level Pressure  
Sea Level Pressure 30.04 in    
Wind  
Wind Speed 14 mph (South)    
Max Wind Speed 26 mph    
Max Gust Speed 32 mph    
Visibility 10 miles    
Events Rain , Thunderstorm    
Averages and records for this station are not official NWS values.
T = Trace of Precipitation, MM = Missing Value Source: NWS Daily Summary

Daily Weather History Graph

Daily Weather History Graph

Search for Another Location

Airport or City:

Trip Planner

Search our weather history database for the weather conditions in past years. The results will help you decide how hot, cold, wet, or windy it might be!

Date:

Astronomy

Jul. 25, 2013 Rise Set
Actual Time 6:03 AM MDT 8:10 PM MDT
Civil Twilight 5:34 AM MDT 8:38 PM MDT
Nautical Twilight 5:00 AM MDT 9:13 PM MDT
Astronomical Twilight 4:22 AM MDT 9:51 PM MDT
Moon 10:02 PM MDT (7/25) 9:26 AM MDT (7/25)
Length of Visible Light 15h 03m
Length of Day
14h 06m
Waning Gibbous, 88% of the Moon is Illuminated
Jul 25
Waning Gibbous
Jul 29
Last Quarter
Aug 6
New
Aug 14
First Quarter
Aug 20
Full

Hourly Weather History & Observations

Time (MDT) Temp. Dew Point Humidity Pressure Visibility Wind Dir Wind Speed Gust Speed Precip Events Conditions
12:53 AM 61.0 °F 53.1 °F 75% 30.04 in 10.0 mi SSE 10.4 mph - N/A   Overcast
1:53 AM 60.1 °F 55.0 °F 83% 30.03 in 10.0 mi SE 17.3 mph - N/A   Overcast
2:53 AM 59.0 °F 55.0 °F 87% 30.02 in 10.0 mi South 10.4 mph - N/A   Overcast
3:53 AM 59.0 °F 55.9 °F 90% 30.01 in 10.0 mi SW 10.4 mph - N/A   Overcast
4:53 AM 59.0 °F 54.0 °F 83% 30.01 in 10.0 mi SSW 10.4 mph - N/A   Overcast
5:53 AM 57.0 °F 54.0 °F 89% 30.06 in 10.0 mi South 12.7 mph - N/A   Mostly Cloudy
6:53 AM 57.9 °F 54.0 °F 87% 30.05 in 10.0 mi South 9.2 mph - N/A   Clear
7:53 AM 62.1 °F 54.0 °F 75% 30.04 in 10.0 mi SSW 13.8 mph - N/A   Clear
8:53 AM 64.9 °F 55.0 °F 70% 30.02 in 10.0 mi South 19.6 mph - N/A   Clear
9:53 AM 69.1 °F 55.0 °F 61% 30.00 in 10.0 mi South 23.0 mph - N/A   Clear
10:53 AM 73.0 °F 54.0 °F 51% 29.97 in 10.0 mi SSW 26.5 mph 32.2 mph N/A   Clear
11:53 AM 75.0 °F 53.1 °F 46% 29.96 in 10.0 mi SSW 21.9 mph - N/A   Clear
12:53 PM 77.0 °F 53.1 °F 43% 29.95 in 10.0 mi SSW 20.7 mph 25.3 mph N/A   Clear
1:53 PM 79.0 °F 53.1 °F 40% 29.91 in 10.0 mi SSW 19.6 mph 23.0 mph N/A   Clear
2:53 PM 81.0 °F 52.0 °F 36% 29.90 in 10.0 mi SSW 17.3 mph 24.2 mph N/A   Clear
3:53 PM 82.9 °F 52.0 °F 34% 29.86 in 10.0 mi SSW 20.7 mph 26.5 mph N/A   Clear
4:41 PM 82.4 °F 51.8 °F 35% 30.19 in 10.0 mi SSW 19.6 mph 26.5 mph N/A Thunderstorm Partly Cloudy
4:53 PM 81.0 °F 50.0 °F 34% 29.84 in 10.0 mi SSW 17.3 mph 24.2 mph N/A Thunderstorm Scattered Clouds
5:35 PM 66.2 °F 60.8 °F 83% 30.25 in 10.0 mi East 17.3 mph 25.3 mph 0.01 in Rain , Thunderstorm Light Thunderstorms and Rain
5:53 PM 64.9 °F 59.0 °F 81% 29.96 in 10.0 mi East 21.9 mph - 0.01 in Thunderstorm Thunderstorm
6:19 PM 66.2 °F 57.2 °F 73% 30.25 in 10.0 mi ESE 17.3 mph 32.2 mph N/A   Clear
6:53 PM 69.1 °F 55.9 °F 63% 29.98 in 10.0 mi SE 12.7 mph - N/A   Mostly Cloudy
7:43 PM 68.0 °F 57.2 °F 68% 30.30 in 10.0 mi NE 10.4 mph - N/A Thunderstorm Mostly Cloudy
7:53 PM 68.0 °F 57.9 °F 70% 30.01 in 10.0 mi NE 12.7 mph - N/A Thunderstorm Scattered Clouds
8:53 PM 66.9 °F 57.0 °F 70% 30.04 in 10.0 mi NE 3.5 mph - 0.00 in Thunderstorm Thunderstorm
9:53 PM 64.0 °F 57.0 °F 78% 30.08 in 10.0 mi West 8.1 mph - 0.02 in Thunderstorm Overcast
10:30 PM 62.6 °F 57.2 °F 82% 30.39 in 10.0 mi NNW 3.5 mph - 0.00 in   Overcast
10:53 PM 64.9 °F 55.9 °F 73% 30.05 in 10.0 mi NNE 9.2 mph - 0.00 in   Overcast
11:53 PM 63.0 °F 52.0 °F 67% 30.06 in 10.0 mi NNW 16.1 mph - N/A   Mostly Cloudy